This is the latest recevied weather packets stored in our database for station/object WZ8H. If no packets are shown the sender has not sent any weather packets the latest 1 day(s).
| Time | Temp. | Humidity | Pressure | Rain* | Wind** | Luminosity | Snow |
|---|---|---|---|---|---|---|---|
| 1777980440 | 16.11° C | 77% | 1003 hPa | 0 mm | 2.24 m/s, 237° | 23 W/m² | - |
| 1777980111 | 16.11° C | 77% | 1002.8 hPa | 0 mm | 2.24 m/s, 236° | 23 W/m² | - |
| 1777979810 | 16.11° C | 77% | 1002.5 hPa | 0 mm | 1.79 m/s, 238° | 21 W/m² | - |
| 1777979482 | 16.11° C | 77% | 1002.5 hPa | 0 mm | 1.79 m/s, 236° | 23 W/m² | - |
| 1777979185 | 16.11° C | 78% | 1002.5 hPa | 0 mm | 1.79 m/s, 242° | 21 W/m² | - |
| 1777978875 | 16.11° C | 78% | 1002.4 hPa | 0 mm | 1.34 m/s, 247° | 19 W/m² | - |
| 1777978574 | 16.11° C | 78% | 1002.4 hPa | 0 mm | 1.34 m/s, 207° | 16 W/m² | - |
| 1777978246 | 16.11° C | 78% | 1002.4 hPa | 0 mm | 1.34 m/s, 252° | 12 W/m² | - |
| 1777977950 | 16.11° C | 78% | 1002.4 hPa | 0 mm | 1.79 m/s, 244° | 9 W/m² | - |
| 1777977615 | 16.11° C | 78% | 1002.3 hPa | 0 mm | 1.34 m/s, 221° | 5 W/m² | - |
| 1777977289 | 16.11° C | 78% | 1002.2 hPa | 0 mm | 1.79 m/s, 254° | 0 W/m² | - |
| 1777976987 | 16.11° C | 78% | 1002.2 hPa | 0 mm | 1.79 m/s, 209° | 0 W/m² | - |
| 1777976748 | 16.67° C | 77% | 1002.4 hPa | 0 mm | 1.79 m/s, 224° | 0 W/m² | - |
| 1777976358 | 16.67° C | 76% | 1002.3 hPa | 0 mm | 1.79 m/s, 246° | 0 W/m² | - |
| 1777976035 | 16.67° C | 76% | 1002.2 hPa | 0 mm | 2.24 m/s, 269° | 0 W/m² | - |
| 1777975707 | 16.67° C | 76% | 1002.3 hPa | 0 mm | 2.24 m/s, 274° | 0 W/m² | - |
| 1777975379 | 16.67° C | 76% | 1002.3 hPa | 0 mm | 2.24 m/s, 251° | 0 W/m² | - |
| 1777975077 | 16.67° C | 76% | 1002.3 hPa | 0 mm | 2.24 m/s, 215° | 0 W/m² | - |
| 1777974774 | 16.67° C | 76% | 1002.1 hPa | 0 mm | 2.24 m/s, 264° | 0 W/m² | - |
| 1777974471 | 16.67° C | 76% | 1002.2 hPa | 0 mm | 2.24 m/s, 242° | 0 W/m² | - |
| 1777974146 | 16.67° C | 77% | 1002.1 hPa | 0 mm | 2.24 m/s, 229° | 0 W/m² | - |
| 1777973817 | 16.67° C | 77% | 1001.9 hPa | 0 mm | 1.79 m/s, 228° | 0 W/m² | - |
| 1777973512 | 16.67° C | 77% | 1001.9 hPa | 0 mm | 1.79 m/s, 248° | 0 W/m² | - |
| 1777973188 | 17.22° C | 76% | 1001.7 hPa | 0 mm | 2.24 m/s, 221° | 0 W/m² | - |
| 1777972859 | 17.22° C | 76% | 1001.5 hPa | 0 mm | 2.24 m/s, 266° | 0 W/m² | - |
* Rain latest hour (hover to see other rain measurements)
** Current wind speed in m/s (hover to see current wind gust speed)